Arctic Village, AK

2:35 PM AKDT on September 24, 2017 (GMT -0800)
Arctic Village

Weather History for PARC - November, 2012

Change the Weather History Date:

Sunday, November 4, 2012

  Actual Average Record
Temperature  
Mean Temperature -8 °F -  
Max Temperature -2 °F 8 °F 38 °F (1970)
Min Temperature -14 °F -11 °F -40 °F (1999)
Degree Days  
Heating Degree Days 73    
Moisture  
Dew Point -22 °F    
Average Humidity 49    
Maximum Humidity 100    
Minimum Humidity 29    
Precipitation  
Precipitation 0.00 in - - ()
Sea Level Pressure  
Sea Level Pressure 29.78 in    
Wind  
Wind Speed 5 mph (ENE)    
Max Wind Speed 10 mph    
Max Gust Speed -    
Visibility 10 miles    
Events      
Averages and records for this station are not official NWS values.
T = Trace of Precipitation, MM = Missing Value Source: NWS Daily Summary

Daily Weather History Graph

Daily Weather History Graph

Search for Another Location

Airport or City:

Trip Planner

Search our weather history database for the weather conditions in past years. The results will help you decide how hot, cold, wet, or windy it might be!

Date:

Astronomy

Nov. 04, 2012 Rise Set
Actual Time 9:10 AM AKST 3:40 PM AKST
Civil Twilight 8:01 AM AKST 4:48 PM AKST
Nautical Twilight 6:52 AM AKST 5:57 PM AKST
Astronomical Twilight 5:47 AM AKST 7:02 PM AKST
Moon 7:56 PM AKST (11/4) 2:37 PM AKST (11/4)
Length of Visible Light 8h 47m
Length of Day
6h 29m
Waning Gibbous, 70% of the Moon is Illuminated
Nov 4
Waning Gibbous
Nov 6
Last Quarter
Nov 13
New
Nov 20
First Quarter
Nov 28
Full

Hourly Weather History & Observations

Time (AKST) Temp. Windchill Dew Point Humidity Pressure Visibility Wind Dir Wind Speed Gust Speed Precip Events Conditions
12:16 AM -9.4 °F -22.7 °F -22.0 °F 54% 29.90 in 10.0 mi East 5.8 mph - N/A   Scattered Clouds
12:36 AM -9.4 °F -24.3 °F -23.8 °F 49% 29.90 in 10.0 mi ENE 6.9 mph - N/A   Overcast
12:56 AM -9.4 °F -25.6 °F - N/A% 29.89 in 10.0 mi ENE 8.1 mph - N/A   Scattered Clouds
1:16 AM -7.6 °F -23.4 °F - N/A% 29.89 in 10.0 mi ENE 8.1 mph - N/A   Clear
1:36 AM -7.6 °F -24.6 °F - N/A% 29.88 in 10.0 mi ENE 9.2 mph - N/A   Partly Cloudy
1:56 AM -7.6 °F -25.7 °F - N/A% 29.88 in 10.0 mi ENE 10.4 mph - N/A   Clear
1:16 AM -7.6 °F -22.1 °F - N/A% 29.88 in 10.0 mi ENE 6.9 mph - N/A   Clear
1:36 AM -9.4 °F -25.6 °F - N/A% 29.87 in 10.0 mi ENE 8.1 mph - N/A   Clear
1:56 AM -7.6 °F -22.1 °F -31.0 °F 31% 29.87 in 10.0 mi NE 6.9 mph - N/A   Clear
2:16 AM -9.4 °F -22.7 °F -29.2 °F 37% 29.86 in 10.0 mi ENE 5.8 mph - N/A   Clear
3:36 AM -9.4 °F -18.6 °F -25.6 °F 45% 29.86 in 10.0 mi East 3.5 mph - N/A   Mostly Cloudy
3:56 AM -7.6 °F -18.8 °F -22.0 °F 50% 29.85 in 10.0 mi NE 4.6 mph - N/A   Overcast
4:16 AM -7.6 °F -16.5 °F -23.8 °F 45% 29.85 in 10.0 mi East 3.5 mph - N/A   Overcast
4:36 AM -5.8 °F -19.9 °F -18.4 °F 55% 29.84 in 10.0 mi NE 6.9 mph - N/A   Overcast
4:56 AM -5.8 °F -16.7 °F -20.2 °F 50% 29.84 in 10.0 mi ENE 4.6 mph - N/A   Overcast
5:16 AM -5.8 °F -18.4 °F -18.4 °F 55% 29.84 in 10.0 mi NE 5.8 mph - N/A   Overcast
5:36 AM -5.8 °F -19.9 °F -18.4 °F 55% 29.84 in 10.0 mi NE 6.9 mph - N/A   Overcast
5:56 AM -5.8 °F -21.2 °F -16.6 °F 60% 29.83 in 10.0 mi ENE 8.1 mph - N/A   Overcast
6:16 AM -5.8 °F -21.2 °F -20.2 °F 50% 29.83 in 10.0 mi East 8.1 mph - N/A   Overcast
6:36 AM -4.0 °F -20.2 °F -11.2 °F 71% 29.82 in 10.0 mi ENE 9.2 mph - N/A   Overcast
6:56 AM -5.8 °F -23.4 °F -25.6 °F 38% 29.81 in 10.0 mi ENE 10.4 mph - N/A   Overcast
7:16 AM -5.8 °F -21.2 °F -16.6 °F 60% 29.81 in 10.0 mi ENE 8.1 mph - N/A   Mostly Cloudy
7:36 AM -5.8 °F -23.4 °F -16.6 °F 60% 29.80 in 10.0 mi NE 10.4 mph - N/A   Overcast
7:56 AM -5.8 °F -21.2 °F -27.4 °F 35% 29.80 in 10.0 mi ENE 8.1 mph - N/A   Overcast
8:16 AM -5.8 °F -16.7 °F -14.8 °F 65% 29.79 in 10.0 mi ENE 4.6 mph - N/A   Mostly Cloudy
8:36 AM -5.8 °F -21.2 °F -27.4 °F 35% 29.79 in 10.0 mi ENE 8.1 mph - N/A   Mostly Cloudy
8:56 AM -5.8 °F -14.5 °F - N/A% 29.79 in 10.0 mi NE 3.5 mph - N/A   Overcast
9:16 AM -5.8 °F - - N/A% 29.79 in 10.0 mi Calm Calm - N/A   Overcast
9:36 AM -5.8 °F -16.7 °F - N/A% 29.79 in 10.0 mi East 4.6 mph - N/A   Overcast
9:56 AM -5.8 °F -14.5 °F - N/A% 29.79 in 10.0 mi NNE 3.5 mph - N/A   Overcast
10:16 AM -5.8 °F -19.9 °F -29.2 °F 32% 29.78 in 10.0 mi East 6.9 mph - N/A   Overcast
10:36 AM -4.0 °F -17.8 °F -27.4 °F 32% 29.78 in 10.0 mi NE 6.9 mph - N/A   Overcast
10:56 AM -2.2 °F -14.2 °F -27.4 °F 29% 29.77 in 10.0 mi NE 5.8 mph - N/A   Overcast
11:16 AM -2.2 °F -10.4 °F -25.6 °F 32% 29.77 in 10.0 mi East 3.5 mph - N/A   Overcast
11:36 AM -5.8 °F - -25.6 °F 38% 29.77 in 10.0 mi Calm Calm - N/A   Scattered Clouds
11:56 AM -5.8 °F -14.5 °F -25.6 °F 38% 29.77 in 10.0 mi NE 3.5 mph - N/A   Partly Cloudy
12:16 PM -7.6 °F - -25.6 °F 41% 29.77 in 10.0 mi Calm Calm - N/A   Mostly Cloudy
12:36 PM -5.8 °F - -20.2 °F 50% 29.76 in 10.0 mi Calm Calm - N/A   Mostly Cloudy
12:56 PM -5.8 °F -19.9 °F -23.8 °F 42% 29.76 in 10.0 mi ENE 6.9 mph - N/A   Partly Cloudy
1:16 PM -4.0 °F -16.3 °F -16.6 °F 55% 29.75 in 10.0 mi ENE 5.8 mph - N/A   Scattered Clouds
1:36 PM -4.0 °F -17.8 °F -20.2 °F 46% 29.75 in 10.0 mi ENE 6.9 mph - N/A   Partly Cloudy
1:56 PM -4.0 °F -16.3 °F -18.4 °F 50% 29.74 in 10.0 mi ENE 5.8 mph - N/A   Clear
2:16 PM -4.0 °F -19.0 °F -16.6 °F 55% 29.73 in 10.0 mi ENE 8.1 mph - N/A   Clear
2:36 PM -4.0 °F -17.8 °F -22.0 °F 42% 29.73 in 10.0 mi ENE 6.9 mph - N/A   Clear
2:56 PM -5.8 °F -18.4 °F -16.6 °F 60% 29.73 in 10.0 mi East 5.8 mph - N/A   Clear
3:16 PM -5.8 °F -16.7 °F -20.2 °F 50% 29.73 in 10.0 mi ENE 4.6 mph - N/A   Clear
3:36 PM -5.8 °F -14.5 °F -23.8 °F 42% 29.73 in 10.0 mi ENE 3.5 mph - N/A   Clear
3:56 PM -7.6 °F -20.6 °F -13.0 °F 77% 29.72 in 10.0 mi ENE 5.8 mph - N/A   Clear
4:16 PM -7.6 °F -18.8 °F -29.2 °F 34% 29.72 in 10.0 mi ENE 4.6 mph - N/A   Clear
4:36 PM -7.6 °F -16.5 °F -7.6 °F 100% 29.72 in 10.0 mi East 3.5 mph - N/A   Clear
4:56 PM -9.4 °F - - N/A% 29.72 in 10.0 mi Calm Calm - N/A   Clear
5:16 PM -9.4 °F - - N/A% 29.72 in 10.0 mi Calm Calm - N/A   Clear
5:36 PM -9.4 °F -18.6 °F - N/A% 29.72 in 10.0 mi ENE 3.5 mph - N/A   Clear
5:56 PM -9.4 °F - -14.8 °F 77% 29.72 in 10.0 mi Calm Calm - N/A   Clear
6:16 PM -9.4 °F - -25.6 °F 45% 29.72 in 10.0 mi Calm Calm - N/A   Clear
6:36 PM -11.2 °F - - N/A% 29.72 in 10.0 mi Calm Calm - N/A   Clear
6:56 PM -11.2 °F - - N/A% 29.72 in 10.0 mi Calm Calm - N/A   Clear
7:16 PM -11.2 °F - - N/A% 29.73 in 10.0 mi Calm Calm - N/A   Clear
7:36 PM -11.2 °F - - N/A% 29.73 in 10.0 mi Calm Calm - N/A   Clear
7:56 PM -13.0 °F - - N/A% 29.73 in 10.0 mi Calm Calm - N/A   Clear
8:16 PM -11.2 °F - - N/A% 29.73 in 10.0 mi Calm Calm - N/A   Clear
8:36 PM -11.2 °F - - N/A% 29.73 in 10.0 mi Calm Calm - N/A   Clear
8:56 PM -14.8 °F - - N/A% 29.74 in 10.0 mi Calm Calm - N/A   Clear
9:16 PM -11.2 °F - -31.0 °F 37% 29.74 in 10.0 mi Calm Calm - N/A   Clear
9:36 PM -13.0 °F -22.7 °F -29.2 °F 44% 29.74 in 10.0 mi East 3.5 mph - N/A   Clear
9:56 PM -13.0 °F - -27.4 °F 49% 29.75 in 10.0 mi Calm Calm - N/A   Clear
10:16 PM -13.0 °F -22.7 °F -27.4 °F 49% 29.75 in 10.0 mi East 3.5 mph - N/A   Clear
10:36 PM -13.0 °F - -27.4 °F 49% 29.76 in 10.0 mi Calm Calm - N/A   Clear
10:56 PM -14.8 °F - -27.4 °F 53% 29.76 in 10.0 mi Calm Calm - N/A   Clear